This is the latest recevied weather packets stored in our database for station/object W0DXV. If no packets are shown the sender has not sent any weather packets the latest 10 day(s).
| Time | Temp. | Humidity | Pressure | Rain* | Wind** | Luminosity | Snow |
|---|---|---|---|---|---|---|---|
| 1777595353 | 16.67° C | 47% | 1007.1 hPa | 0 mm | - | 0 W/m² | - |
| 1777595049 | 16.67° C | 54% | 1007.2 hPa | 0 mm | - | 0 W/m² | - |
| 1777594746 | 16.67° C | 49% | 1007.2 hPa | 0 mm | - | 0 W/m² | - |
| 1777594443 | 17.22° C | 49% | 1007.1 hPa | 0 mm | - | 1 W/m² | - |
| 1777594138 | 17.22° C | 50% | 1007 hPa | 0 mm | - | 2 W/m² | - |
| 1777593834 | 17.78° C | 45% | 1006.8 hPa | 0 mm | - | 4 W/m² | - |
| 1777593531 | 18.89° C | 44% | 1007 hPa | 0 mm | - | 5 W/m² | - |
| 1777593225 | 19.44° C | 38% | 1006.8 hPa | 0 mm | - | 8 W/m² | - |
| 1777592925 | 19.44° C | 36% | 1006.7 hPa | 0 mm | - | 11 W/m² | - |
| 1777592620 | 19.44° C | 37% | 1006.7 hPa | 0 mm | - | 15 W/m² | - |
| 1777592317 | 20° C | 35% | 1006.7 hPa | 0 mm | - | 18 W/m² | - |
| 1777592012 | 20° C | 34% | 1006.4 hPa | 0 mm | - | 17 W/m² | - |
| 1777591709 | 20° C | 34% | 1006.4 hPa | 0 mm | - | 22 W/m² | - |
| 1777591404 | 20.56° C | 34% | 1006.2 hPa | 0 mm | - | 21 W/m² | - |
| 1777591101 | 20.56° C | 35% | 1006.3 hPa | 0 mm | - | 23 W/m² | - |
| 1777590796 | 20.56° C | 34% | 1006.3 hPa | 0 mm | - | 22 W/m² | - |
| 1777590493 | 20.56° C | 36% | 1006.1 hPa | 0 mm | - | 24 W/m² | - |
| 1777590189 | 21.11° C | 35% | 1006.2 hPa | 0 mm | - | 29 W/m² | - |
| 1777589885 | 21.11° C | 35% | 1006 hPa | 0 mm | - | 32 W/m² | - |
| 1777589576 | 21.11° C | 34% | 1006 hPa | 0 mm | - | 35 W/m² | - |
| 1777589274 | 21.11° C | 35% | 1006.1 hPa | 0 mm | - | 39 W/m² | - |
| 1777588971 | 21.11° C | 34% | 1005.9 hPa | 0 mm | - | 34 W/m² | - |
| 1777588666 | 21.67° C | 35% | 1006 hPa | 0 mm | - | 49 W/m² | - |
| 1777588362 | 21.67° C | 34% | 1005.8 hPa | 0 mm | - | 43 W/m² | - |
| 1777588057 | 21.67° C | 35% | 1005.8 hPa | 0 mm | - | 54 W/m² | - |
* Rain latest hour (hover to see other rain measurements)
** Current wind speed in m/s (hover to see current wind gust speed)